This is the latest recevied weather packets stored in our database for station/object K6POO-1. If no packets are shown the sender has not sent any weather packets the latest 10 day(s).
| Time | Temp. | Humidity | Pressure | Rain* | Wind** | Luminosity | Snow |
|---|---|---|---|---|---|---|---|
| 1777496563 | 18.89° C | 62% | 1017.8 hPa | 0 mm | - | 908 W/m² | - |
| 1777496258 | 18.89° C | 63% | 1017.9 hPa | 0 mm | - | 915 W/m² | - |
| 1777495955 | 18.89° C | 63% | 1017.7 hPa | 0 mm | - | 922 W/m² | - |
| 1777495650 | 18.33° C | 64% | 1017.7 hPa | 0 mm | - | 931 W/m² | - |
| 1777495347 | 18.33° C | 64% | 1017.9 hPa | 0 mm | - | 937 W/m² | - |
| 1777495044 | 18.33° C | 65% | 1017.8 hPa | 0 mm | - | 941 W/m² | - |
| 1777494741 | 17.78° C | 66% | 1017.9 hPa | 0 mm | - | 946 W/m² | - |
| 1777494439 | 18.89° C | 64% | 1017.7 hPa | 0 mm | - | 952 W/m² | - |
| 1777494135 | 18.89° C | 62% | 1018.2 hPa | 0 mm | - | 955 W/m² | - |
| 1777493832 | 18.89° C | 62% | 1018 hPa | 0 mm | - | 960 W/m² | - |
| 1777493530 | 18.89° C | 64% | 1018 hPa | 0 mm | - | 962 W/m² | - |
| 1777493228 | 19.44° C | 62% | 1017.9 hPa | 0 mm | - | 967 W/m² | - |
| 1777492923 | 18.89° C | 63% | 1018.1 hPa | 0 mm | - | 969 W/m² | - |
| 1777492621 | 18.89° C | 63% | 1018 hPa | 0 mm | - | 973 W/m² | - |
| 1777492315 | 18.33° C | 65% | 1018.1 hPa | 0 mm | - | 973 W/m² | - |
| 1777492013 | 18.89° C | 63% | 1018 hPa | 0 mm | - | 975 W/m² | - |
| 1777491709 | 18.89° C | 65% | 1018.3 hPa | 0 mm | - | 976 W/m² | - |
| 1777491407 | 18.89° C | 63% | 1018.1 hPa | 0 mm | - | 975 W/m² | - |
| 1777491104 | 18.89° C | 64% | 1018.3 hPa | 0 mm | - | 973 W/m² | - |
| 1777490799 | 19.44° C | 61% | 1018.3 hPa | 0 mm | - | 974 W/m² | - |
| 1777490496 | 20° C | 61% | 1018.5 hPa | 0 mm | - | 970 W/m² | - |
| 1777490192 | 20.56° C | 59% | 1018.4 hPa | 0 mm | - | 968 W/m² | - |
| 1777489890 | 20.56° C | 60% | 1018.7 hPa | 0 mm | - | 966 W/m² | - |
| 1777489587 | 20° C | 61% | 1018.8 hPa | 0 mm | - | 964 W/m² | - |
| 1777489283 | 20° C | 62% | 1018.7 hPa | 0 mm | - | 959 W/m² | - |
* Rain latest hour (hover to see other rain measurements)
** Current wind speed in m/s (hover to see current wind gust speed)